Regional Weather Roundup
Issued by NWS

Home | Current Version | Previous Version | Graphics & Text | Print | Product List | Glossary On
Versions: 1 2 3 4 5 6 7 8 9 10 11 12 13 14 15 16 17 18 19 20 21 22 23 24 25 26 27 28 29 30 31 32 33 34 35 36 37 38 39 40 41 42 43 44 45 46 47 48 49 50
000
ASUS43 KFSD 170802
RWRSD

WEATHER ROUNDUP FOR SOUTH DAKOTA
NATIONAL WEATHER SERVICE SIOUX FALLS SD
300 AM CDT WED SEP 17 2014

NOTE: "FAIR" INDICATES FEW OR NO CLOUDS BELOW 12,000 FEET WITH NO
SIGNIFICANT WEATHER AND/OR OBSTRUCTIONS TO VISIBILITY.


SDZ001>005-009-010-012>017-170900-
NORTHWEST AND NORTH CENTRAL SOUTH DAKOTA

CITY           SKY/WX    TMP DP  RH WIND       PRES   REMARKS
FAITH            N/A     58  50  75 NE3       29.92S
MOBRIDGE       MOCLDY    49  47  93 CALM      29.89S
$$

SDZ012>016-024>037-041>051-057-063-072>074-170900-
SOUTHWEST AND SOUTH CENTRAL SOUTH DAKOTA

CITY           SKY/WX    TMP DP  RH WIND       PRES   REMARKS
RAPID CTY ARPT CLEAR     55  45  68 W6        29.95S
PIERRE         CLEAR     50  48  93 CALM      29.89R
CUSTER         CLEAR     47  38  71 NW5       30.10S
ELLSWORTH AFB  CLEAR     55  46  72 W5        29.94F
PHILIP         PTCLDY    47  45  93 W5        29.91S
PINE RIDGE     PTCLDY    48  46  93 E3        29.98S
WINNER         FAIR      61  56  83 SW7       29.91F
$$

SDZ004>011-016>023-039-040-170900-
NORTHEAST SOUTH DAKOTA

CITY           SKY/WX    TMP DP  RH WIND       PRES   REMARKS
ABERDEEN       CLEAR     46  46 100 CALM      29.92R FOG
WATERTOWN      CLEAR     52  49  89 S7        29.92S
SISSETON         N/A     49  48  97 SE5       29.90S
$$

SDZ017-020-022-023-036>040-048>070-170900-
SOUTHEAST SOUTH DAKOTA

CITY           SKY/WX    TMP DP  RH WIND       PRES   REMARKS
SIOUX FALLS    CLOUDY    58  50  75 S5        29.95S
HURON          MOCLDY    53  51  93 SE5       29.90S
CHAMBERLAIN    CLEAR     53  53  99 CALM      29.91S
MITCHELL       PTCLDY    51  50  96 SE6       29.92R
YANKTON        CLEAR     54  48  82 SE6       29.94F
$$

ABBREVIATIONS USED IN REMARKS
   TC - TEMPERATURE IN CELSIUS
  WCI - WIND CHILL INDEX
   HX - HEAT INDEX
  VSB - VISIBILITY




USA.gov is the U.S. government's official web portal to all federal, state and local government web resources and services.